Time,TemperatureF,DewpointF,PressureIn,WindDirection,WindDirectionDegrees,WindSpeedMPH,WindSpeedGustMPH,Humidity,HourlyPrecipIn,Conditions,Clouds,dailyrainin,SoftwareType,DateUTC
2014-03-05 00:01:00,37.1,18.2,30.20,North,0,5.8,5.8,46,0.00,,OVC140,0.00,VWS V15.00,2014-03-05 05:01:00,
2014-03-05 00:06:00,37.1,18.8,30.19,North,0,5.8,5.8,47,0.00,,OVC140,0.00,VWS V15.00,2014-03-05 05:06:00,
2014-03-05 00:11:00,37.1,18.8,30.19,North,0,5.8,5.8,47,0.00,,OVC140,0.00,VWS V15.00,2014-03-05 05:11:00,
2014-03-05 00:16:00,37.1,18.8,30.18,North,0,5.8,5.8,47,0.00,,OVC140,0.00,VWS V15.00,2014-03-05 05:16:00,
2014-03-05 00:21:00,36.9,18.6,30.18,North,0,5.8,5.8,47,0.00,,OVC140,0.00,VWS V15.00,2014-03-05 05:21:00,
2014-03-05 00:26:00,36.7,18.4,30.17,North,0,5.8,5.8,47,0.00,,OVC140,0.00,VWS V15.00,2014-03-05 05:26:00,
2014-03-05 00:31:00,36.7,18.4,30.16,North,0,5.8,5.8,47,0.00,,OVC140,0.00,VWS V15.00,2014-03-05 05:31:00,
2014-03-05 00:36:00,36.7,18.4,30.16,North,0,5.8,5.8,47,0.00,,OVC140,0.00,VWS V15.00,2014-03-05 05:36:00,
2014-03-05 00:41:00,36.5,18.2,30.17,North,0,5.8,5.8,47,0.00,,OVC140,0.00,VWS V15.00,2014-03-05 05:41:00,
2014-03-05 00:46:00,36.5,18.2,30.17,NE,45,4.9,4.9,47,0.00,,OVC140,0.00,VWS V15.00,2014-03-05 05:46:00,
2014-03-05 00:51:00,36.5,18.2,30.17,ENE,68,2.0,4.5,47,0.00,,OVC140,0.00,VWS V15.00,2014-03-05 05:51:00,
2014-03-05 00:56:00,36.4,17.6,30.18,ENE,68,2.0,2.0,46,0.00,,OVC130,0.00,VWS V15.00,2014-03-05 05:56:00,
2014-03-05 01:01:00,36.4,18.1,30.19,ENE,68,2.0,2.0,47,0.00,,OVC130,0.00,VWS V15.00,2014-03-05 06:01:00,
2014-03-05 01:06:00,36.5,18.2,30.19,ENE,68,2.0,2.0,47,0.00,,OVC130,0.00,VWS V15.00,2014-03-05 06:06:00,
2014-03-05 01:11:00,36.5,18.2,30.19,ENE,68,4.5,4.5,47,0.00,,OVC130,0.00,VWS V15.00,2014-03-05 06:11:00,
2014-03-05 01:16:00,36.4,18.1,30.18,ENE,68,3.1,3.1,47,0.00,,OVC130,0.00,VWS V15.00,2014-03-05 06:16:00,
2014-03-05 01:21:00,36.4,18.1,30.18,East,90,5.4,5.4,47,0.00,,OVC130,0.00,VWS V15.00,2014-03-05 06:21:00,
2014-03-05 01:26:00,36.2,17.9,30.18,East,90,5.4,5.4,47,0.00,,OVC130,0.00,VWS V15.00,2014-03-05 06:26:00,
2014-03-05 01:31:00,36.2,17.9,30.17,East,90,5.4,5.4,47,0.00,,OVC130,0.00,VWS V15.00,2014-03-05 06:31:00,
2014-03-05 01:36:00,36.2,18.4,30.18,East,90,5.4,5.4,48,0.00,,OVC130,0.00,VWS V15.00,2014-03-05 06:36:00,
2014-03-05 01:41:00,36.2,17.9,30.17,NE,45,4.2,4.2,47,0.00,,OVC130,0.00,VWS V15.00,2014-03-05 06:41:00,
2014-03-05 01:46:00,36.0,18.2,30.17,East,90,4.0,4.0,48,0.00,,OVC130,0.00,VWS V15.00,2014-03-05 06:46:00,
2014-03-05 01:51:00,36.0,18.2,30.16,ENE,68,2.7,2.7,48,0.00,,OVC130,0.00,VWS V15.00,2014-03-05 06:51:00,
2014-03-05 01:56:00,36.0,18.7,30.17,ENE,68,2.7,2.7,49,0.00,,OVC110,0.00,VWS V15.00,2014-03-05 06:56:00,
2014-03-05 02:01:00,36.0,18.7,30.16,ENE,68,2.7,2.7,49,0.00,,OVC110,0.00,VWS V15.00,2014-03-05 07:01:00,
2014-03-05 02:06:00,36.0,18.7,30.17,ENE,68,2.7,2.7,49,0.00,,OVC110,0.00,VWS V15.00,2014-03-05 07:06:00,
2014-03-05 02:11:00,36.0,18.2,30.17,ENE,68,2.7,2.7,48,0.00,,OVC110,0.00,VWS V15.00,2014-03-05 07:11:00,
2014-03-05 02:16:00,35.6,17.9,30.17,ENE,68,2.7,2.7,48,0.00,,OVC110,0.00,VWS V15.00,2014-03-05 07:16:00,
2014-03-05 02:21:00,35.6,18.3,30.18,ENE,68,2.7,2.7,49,0.00,,OVC110,0.00,VWS V15.00,2014-03-05 07:21:00,
2014-03-05 02:26:00,35.6,17.9,30.18,ENE,68,2.7,2.7,48,0.00,,OVC110,0.00,VWS V15.00,2014-03-05 07:26:00,
2014-03-05 02:31:00,35.6,18.3,30.18,ENE,68,2.7,2.7,49,0.00,,OVC110,0.00,VWS V15.00,2014-03-05 07:31:00,
2014-03-05 02:36:00,35.6,18.3,30.17,ENE,68,2.7,2.7,49,0.00,,OVC110,0.00,VWS V15.00,2014-03-05 07:36:00,
2014-03-05 02:41:00,35.6,18.3,30.17,ENE,68,2.7,2.7,49,0.00,,OVC110,0.00,VWS V15.00,2014-03-05 07:41:00,
2014-03-05 02:46:00,35.6,18.3,30.17,ENE,68,2.7,2.7,49,0.00,,OVC110,0.00,VWS V15.00,2014-03-05 07:46:00,
2014-03-05 02:51:00,35.6,18.3,30.17,ENE,68,2.7,2.7,49,0.00,,OVC110,0.00,VWS V15.00,2014-03-05 07:51:00,
2014-03-05 02:56:00,35.6,18.3,30.17,ENE,68,2.7,2.7,49,0.00,,OVC110,0.00,VWS V15.00,2014-03-05 07:56:00,
2014-03-05 03:01:00,35.5,18.2,30.17,ENE,68,2.7,2.7,49,0.00,,OVC140,0.00,VWS V15.00,2014-03-05 08:01:00,
2014-03-05 03:06:00,35.3,18.1,30.17,ENE,68,2.7,2.7,49,0.00,,OVC140,0.00,VWS V15.00,2014-03-05 08:06:00,
2014-03-05 03:11:00,35.3,18.1,30.17,ENE,68,2.7,2.7,49,0.00,,OVC140,0.00,VWS V15.00,2014-03-05 08:11:00,
2014-03-05 03:16:00,35.3,18.1,30.17,ENE,68,2.7,2.7,49,0.00,,OVC140,0.00,VWS V15.00,2014-03-05 08:16:00,
2014-03-05 03:21:00,35.5,18.2,30.17,North,0,2.2,2.2,49,0.00,,OVC140,0.00,VWS V15.00,2014-03-05 08:21:00,
2014-03-05 03:26:00,35.5,18.2,30.17,ENE,68,2.2,2.2,49,0.00,,OVC140,0.00,VWS V15.00,2014-03-05 08:26:00,
2014-03-05 03:31:00,35.3,18.1,30.17,ENE,68,2.0,2.0,49,0.00,,OVC140,0.00,VWS V15.00,2014-03-05 08:31:00,
2014-03-05 03:36:00,35.3,18.5,30.17,ENE,68,2.0,2.0,50,0.00,,OVC140,0.00,VWS V15.00,2014-03-05 08:36:00,
2014-03-05 03:41:00,35.3,18.5,30.17,ENE,68,2.0,2.0,50,0.00,,OVC140,0.00,VWS V15.00,2014-03-05 08:41:00,
2014-03-05 03:46:00,35.3,18.5,30.17,ENE,68,2.0,2.0,50,0.00,,OVC140,0.00,VWS V15.00,2014-03-05 08:46:00,
2014-03-05 03:51:00,35.3,18.5,30.17,ENE,68,2.0,2.0,50,0.00,,OVC140,0.00,VWS V15.00,2014-03-05 08:51:00,
2014-03-05 03:56:00,35.1,18.4,30.17,ENE,68,2.0,2.0,50,0.00,,OVC140,0.00,VWS V15.00,2014-03-05 08:56:00,
2014-03-05 04:01:00,35.1,18.4,30.17,ENE,68,2.0,2.0,50,0.00,,OVC130,0.00,VWS V15.00,2014-03-05 09:01:00,
2014-03-05 04:06:00,34.9,18.2,30.18,ENE,68,2.0,2.0,50,0.00,,OVC130,0.00,VWS V15.00,2014-03-05 09:06:00,
2014-03-05 04:11:00,34.9,18.2,30.17,ENE,68,2.0,2.0,50,0.00,,OVC130,0.00,VWS V15.00,2014-03-05 09:11:00,
2014-03-05 04:16:00,34.9,18.6,30.17,ENE,68,2.0,2.0,51,0.00,,OVC130,0.00,VWS V15.00,2014-03-05 09:16:00,
2014-03-05 04:21:00,34.9,19.1,30.17,ENE,68,2.0,2.0,52,0.00,,OVC130,0.00,VWS V15.00,2014-03-05 09:21:00,
2014-03-05 04:26:00,34.9,18.6,30.17,ENE,68,2.0,2.0,51,0.00,,OVC130,0.00,VWS V15.00,2014-03-05 09:26:00,
2014-03-05 04:30:00,34.9,18.6,30.17,ENE,68,2.0,2.0,51,0.00,,OVC130,0.00,VWS V15.00,2014-03-05 09:30:00,
2014-03-05 04:35:00,34.9,18.6,30.17,ENE,68,2.0,2.0,51,0.00,,OVC130,0.00,VWS V15.00,2014-03-05 09:35:00,
2014-03-05 04:40:00,34.9,19.1,30.17,ENE,68,2.0,2.0,52,0.00,,OVC130,0.00,VWS V15.00,2014-03-05 09:40:00,
2014-03-05 04:45:00,34.9,19.1,30.17,ENE,68,2.0,2.0,52,0.00,,OVC130,0.00,VWS V15.00,2014-03-05 09:45:00,
2014-03-05 04:50:00,34.9,19.1,30.18,ENE,68,2.0,2.0,52,0.00,,OVC130,0.00,VWS V15.00,2014-03-05 09:50:00,
2014-03-05 04:55:00,35.1,19.3,30.18,ENE,68,2.0,2.0,52,0.00,,OVC130,0.00,VWS V15.00,2014-03-05 09:55:00,
2014-03-05 05:00:00,35.1,19.3,30.18,ESE,112,2.0,2.0,52,0.00,,OVC170,0.00,VWS V15.00,2014-03-05 10:00:00,
2014-03-05 05:05:00,34.9,19.1,30.19,NE,45,2.0,2.0,52,0.00,,OVC170,0.00,VWS V15.00,2014-03-05 10:05:00,
2014-03-05 05:10:00,34.9,19.5,30.18,East,90,2.0,2.0,53,0.00,,OVC170,0.00,VWS V15.00,2014-03-05 10:10:00,
2014-03-05 05:15:00,34.9,20.0,30.19,East,90,2.0,2.0,54,0.00,,OVC170,0.00,VWS V15.00,2014-03-05 10:15:00,
2014-03-05 05:20:00,34.9,19.5,30.19,East,90,2.0,2.0,53,0.00,,OVC170,0.00,VWS V15.00,2014-03-05 10:20:00,
2014-03-05 05:25:00,34.9,19.5,30.19,East,90,2.0,2.0,53,0.00,,OVC170,0.00,VWS V15.00,2014-03-05 10:25:00,
2014-03-05 05:30:00,34.9,20.0,30.19,East,90,2.0,2.0,54,0.00,,OVC170,0.00,VWS V15.00,2014-03-05 10:30:00,
2014-03-05 05:35:00,34.9,20.0,30.19,East,90,2.0,2.0,54,0.00,,OVC170,0.00,VWS V15.00,2014-03-05 10:35:00,
2014-03-05 05:40:00,34.9,20.0,30.20,East,90,2.0,2.0,54,0.00,,OVC170,0.00,VWS V15.00,2014-03-05 10:40:00,
2014-03-05 05:45:00,34.9,20.0,30.20,East,90,2.0,2.0,54,0.00,,OVC170,0.00,VWS V15.00,2014-03-05 10:45:00,
2014-03-05 05:50:00,34.9,20.0,30.20,East,90,2.0,2.0,54,0.00,,OVC170,0.00,VWS V15.00,2014-03-05 10:50:00,
2014-03-05 05:55:00,34.7,19.8,30.20,East,90,2.0,2.0,54,0.00,,OVC170,0.00,VWS V15.00,2014-03-05 10:55:00,
2014-03-05 06:00:00,34.7,19.8,30.20,East,90,2.0,2.0,54,0.00,,OVC140,0.00,VWS V15.00,2014-03-05 11:00:00,
2014-03-05 06:05:00,34.7,19.8,30.19,East,90,2.0,2.0,54,0.00,,OVC140,0.00,VWS V15.00,2014-03-05 11:05:00,
2014-03-05 06:10:00,34.6,19.7,30.20,East,90,2.0,2.0,54,0.00,,OVC140,0.00,VWS V15.00,2014-03-05 11:10:00,
2014-03-05 06:15:00,34.6,19.7,30.20,East,90,2.0,2.0,54,0.00,,OVC140,0.00,VWS V15.00,2014-03-05 11:15:00,
2014-03-05 06:20:00,34.6,20.1,30.20,East,90,2.0,2.0,55,0.00,,OVC140,0.00,VWS V15.00,2014-03-05 11:20:00,
2014-03-05 06:25:00,34.6,20.1,30.20,East,90,2.0,2.0,55,0.00,,OVC140,0.00,VWS V15.00,2014-03-05 11:25:00,
2014-03-05 06:30:00,34.6,20.1,30.20,East,90,2.0,2.0,55,0.00,,OVC140,0.00,VWS V15.00,2014-03-05 11:30:00,
2014-03-05 06:35:00,34.6,20.1,30.20,South,180,2.0,2.0,55,0.00,,OVC140,0.00,VWS V15.00,2014-03-05 11:35:00,
2014-03-05 06:40:00,34.6,20.1,30.20,South,180,2.0,2.0,55,0.00,,OVC140,0.00,VWS V15.00,2014-03-05 11:40:00,
2014-03-05 06:45:00,34.7,20.2,30.20,South,180,2.0,2.0,55,0.00,,OVC140,0.00,VWS V15.00,2014-03-05 11:45:00,
2014-03-05 06:50:00,34.7,20.2,30.21,South,180,2.0,2.0,55,0.00,,OVC140,0.00,VWS V15.00,2014-03-05 11:50:00,
2014-03-05 06:55:00,34.7,20.2,30.21,South,180,2.0,2.0,55,0.00,,OVC140,0.00,VWS V15.00,2014-03-05 11:55:00,
2014-03-05 07:00:00,34.6,20.5,30.19,South,180,2.0,2.0,56,0.00,,OVC200,0.00,VWS V15.00,2014-03-05 12:00:00,
2014-03-05 07:05:00,34.2,20.1,30.19,South,180,2.0,2.0,56,0.00,,OVC200,0.00,VWS V15.00,2014-03-05 12:05:00,
2014-03-05 07:10:00,34.2,20.1,30.20,South,180,2.0,2.0,56,0.00,,OVC200,0.00,VWS V15.00,2014-03-05 12:10:00,
2014-03-05 07:15:00,34.4,20.3,30.20,South,180,2.0,2.0,56,0.00,,OVC200,0.00,VWS V15.00,2014-03-05 12:15:00,
2014-03-05 07:20:00,34.6,20.5,30.20,South,180,2.0,2.0,56,0.00,,OVC200,0.00,VWS V15.00,2014-03-05 12:20:00,
2014-03-05 07:25:00,34.6,20.5,30.20,South,180,2.0,2.0,56,0.00,,OVC200,0.00,VWS V15.00,2014-03-05 12:25:00,
2014-03-05 07:30:00,34.7,20.6,30.20,South,180,2.0,2.0,56,0.00,,OVC200,0.00,VWS V15.00,2014-03-05 12:30:00,
2014-03-05 07:35:00,34.7,20.6,30.20,South,180,2.0,2.0,56,0.00,,OVC200,0.00,VWS V15.00,2014-03-05 12:35:00,
2014-03-05 07:40:00,34.6,20.5,30.19,South,180,2.0,2.0,56,0.00,,OVC200,0.00,VWS V15.00,2014-03-05 12:40:00,
2014-03-05 07:45:00,34.7,20.6,30.19,South,180,2.0,2.0,56,0.00,,OVC200,0.00,VWS V15.00,2014-03-05 12:45:00,
2014-03-05 07:50:00,34.7,20.6,30.19,South,180,2.0,2.0,56,0.00,,OVC200,0.00,VWS V15.00,2014-03-05 12:50:00,
2014-03-05 07:55:00,34.9,20.8,30.19,South,180,2.0,2.0,56,0.00,,OVC200,0.00,VWS V15.00,2014-03-05 12:55:00,
2014-03-05 08:00:00,34.9,20.4,30.19,East,90,2.2,2.2,55,0.00,,OVC250,0.00,VWS V15.00,2014-03-05 13:00:00,
2014-03-05 08:05:00,35.1,20.6,30.18,NE,45,2.4,2.4,55,0.00,,OVC250,0.00,VWS V15.00,2014-03-05 13:05:00,
2014-03-05 08:10:00,35.3,21.2,30.18,ESE,112,2.4,2.4,56,0.00,,OVC250,0.00,VWS V15.00,2014-03-05 13:10:00,
2014-03-05 08:15:00,35.3,20.3,30.18,ENE,68,2.2,2.4,54,0.00,,OVC250,0.00,VWS V15.00,2014-03-05 13:15:00,
2014-03-05 08:20:00,35.5,20.5,30.19,East,90,2.7,2.9,54,0.00,,OVC250,0.00,VWS V15.00,2014-03-05 13:20:00,
2014-03-05 08:25:00,35.5,20.5,30.18,ESE,112,3.3,3.3,54,0.00,,OVC250,0.00,VWS V15.00,2014-03-05 13:25:00,
2014-03-05 08:30:00,35.6,20.6,30.19,ENE,68,3.3,3.3,54,0.00,,OVC250,0.00,VWS V15.00,2014-03-05 13:30:00,
2014-03-05 08:35:00,35.8,20.8,30.19,ENE,68,2.4,3.3,54,0.00,,OVC250,0.00,VWS V15.00,2014-03-05 13:35:00,
2014-03-05 08:40:00,36.2,20.7,30.19,ENE,68,3.1,3.1,53,0.00,,OVC250,0.00,VWS V15.00,2014-03-05 13:40:00,
2014-03-05 08:45:00,36.4,20.5,30.19,NE,45,2.2,2.2,52,0.00,,OVC250,0.00,VWS V15.00,2014-03-05 13:45:00,
2014-03-05 08:50:00,36.7,20.3,30.19,ESE,112,2.9,4.0,51,0.00,,OVC250,0.00,VWS V15.00,2014-03-05 13:50:00,
2014-03-05 08:55:00,36.9,20.5,30.19,NE,45,4.5,4.5,51,0.00,,OVC250,0.00,VWS V15.00,2014-03-05 13:55:00,
2014-03-05 09:00:00,37.1,20.2,30.20,NE,45,3.1,4.5,50,0.00,,OVC250,0.00,VWS V15.00,2014-03-05 14:00:00,
2014-03-05 09:05:00,37.3,20.4,30.20,NNE,22,2.0,2.0,50,0.00,,OVC250,0.00,VWS V15.00,2014-03-05 14:05:00,
2014-03-05 09:10:00,37.4,20.0,30.20,ENE,68,3.8,3.8,49,0.00,,OVC250,0.00,VWS V15.00,2014-03-05 14:10:00,
2014-03-05 09:15:00,37.4,20.0,30.20,East,90,2.4,2.4,49,0.00,,OVC250,0.00,VWS V15.00,2014-03-05 14:15:00,
2014-03-05 09:20:00,37.8,19.9,30.20,NE,45,3.3,3.8,48,0.00,,OVC250,0.00,VWS V15.00,2014-03-05 14:20:00,
2014-03-05 09:25:00,38.2,20.7,30.20,North,0,2.0,2.0,49,0.00,,OVC250,0.00,VWS V15.00,2014-03-05 14:25:00,
2014-03-05 09:30:00,38.7,20.7,30.19,ENE,68,3.8,4.0,48,0.00,,OVC250,0.00,VWS V15.00,2014-03-05 14:30:00,
2014-03-05 09:35:00,38.7,20.2,30.19,NE,45,2.2,3.8,47,0.00,,OVC250,0.00,VWS V15.00,2014-03-05 14:35:00,
2014-03-05 09:40:00,39.2,20.7,30.18,ESE,112,3.8,3.8,47,0.00,,OVC250,0.00,VWS V15.00,2014-03-05 14:40:00,
2014-03-05 09:45:00,39.8,21.7,30.18,WNW,292,3.1,3.1,48,0.00,,OVC250,0.00,VWS V15.00,2014-03-05 14:45:00,
2014-03-05 09:50:00,40.0,21.4,30.19,North,0,4.2,4.2,47,0.00,,OVC250,0.00,VWS V15.00,2014-03-05 14:50:00,
2014-03-05 09:55:00,40.0,21.4,30.19,North,0,4.2,4.2,47,0.00,,OVC250,0.00,VWS V15.00,2014-03-05 14:55:00,
2014-03-05 10:00:00,40.7,21.5,30.19,NW,315,2.4,2.4,46,0.00,,OVC250,0.00,VWS V15.00,2014-03-05 15:00:00,
2014-03-05 10:05:00,41.4,22.2,30.19,North,0,2.0,4.9,46,0.00,,OVC250,0.00,VWS V15.00,2014-03-05 15:05:00,
2014-03-05 10:10:00,41.6,21.9,30.19,North,0,4.5,4.5,45,0.00,,OVC250,0.00,VWS V15.00,2014-03-05 15:10:00,
2014-03-05 10:15:00,41.9,22.1,30.20,East,90,2.4,2.4,45,0.00,,OVC250,0.00,VWS V15.00,2014-03-05 15:15:00,
2014-03-05 10:20:00,41.9,22.1,30.20,ENE,68,2.2,2.2,45,0.00,,OVC250,0.00,VWS V15.00,2014-03-05 15:20:00,
2014-03-05 10:25:00,42.1,21.8,30.20,NE,45,2.7,2.7,44,0.00,,OVC250,0.00,VWS V15.00,2014-03-05 15:25:00,
2014-03-05 10:30:00,42.7,21.8,30.20,NNW,338,3.1,3.1,43,0.00,,OVC250,0.00,VWS V15.00,2014-03-05 15:30:00,
2014-03-05 10:35:00,42.8,21.9,30.20,NE,45,4.0,4.0,43,0.00,,OVC250,0.00,VWS V15.00,2014-03-05 15:35:00,
2014-03-05 10:40:00,43.4,23.0,30.20,ENE,68,2.2,2.2,44,0.00,,OVC250,0.00,VWS V15.00,2014-03-05 15:40:00,
2014-03-05 10:45:00,43.7,23.2,30.20,NNW,338,2.4,2.4,44,0.00,,OVC250,0.00,VWS V15.00,2014-03-05 15:45:00,
2014-03-05 10:50:00,43.7,23.2,30.20,NNW,338,2.4,2.4,44,0.00,,OVC250,0.00,VWS V15.00,2014-03-05 15:50:00,
2014-03-05 10:55:00,44.1,22.5,30.20,NE,45,5.1,5.1,42,0.00,,OVC250,0.00,VWS V15.00,2014-03-05 15:55:00,
2014-03-05 11:00:00,44.5,23.4,30.20,North,0,2.4,2.4,43,0.00,,OVC250,0.00,VWS V15.00,2014-03-05 16:00:00,
2014-03-05 11:05:00,44.6,22.9,30.20,NNE,22,3.8,3.8,42,0.00,,OVC250,0.00,VWS V15.00,2014-03-05 16:05:00,
2014-03-05 11:10:00,45.2,22.3,30.20,West,270,3.1,3.1,40,0.00,,OVC250,0.00,VWS V15.00,2014-03-05 16:10:00,
2014-03-05 11:15:00,44.5,21.7,30.20,ENE,68,3.1,3.1,40,0.00,,OVC250,0.00,VWS V15.00,2014-03-05 16:15:00,
2014-03-05 11:20:00,45.0,22.7,30.20,ENE,68,2.9,2.9,41,0.00,,OVC250,0.00,VWS V15.00,2014-03-05 16:20:00,
2014-03-05 11:25:00,45.7,22.8,30.20,ENE,68,2.9,2.9,40,0.00,,OVC250,0.00,VWS V15.00,2014-03-05 16:25:00,
2014-03-05 11:30:00,46.4,24.0,30.20,ENE,68,2.9,2.9,41,0.00,,OVC250,0.00,VWS V15.00,2014-03-05 16:30:00,
2014-03-05 11:35:00,46.8,24.4,30.20,ENE,68,2.9,2.9,41,0.00,,OVC250,0.00,VWS V15.00,2014-03-05 16:35:00,
2014-03-05 11:40:00,47.0,25.1,30.20,ENE,68,2.9,2.9,42,0.00,,OVC250,0.00,VWS V15.00,2014-03-05 16:40:00,
2014-03-05 11:45:00,47.2,22.3,30.20,ENE,68,2.9,2.9,37,0.00,,OVC250,0.00,VWS V15.00,2014-03-05 16:45:00,
2014-03-05 11:50:00,47.2,22.3,30.20,ENE,68,2.9,2.9,37,0.00,,OVC250,0.00,VWS V15.00,2014-03-05 16:50:00,
2014-03-05 11:55:00,46.1,22.5,30.19,ENE,68,2.9,2.9,39,0.00,,OVC250,0.00,VWS V15.00,2014-03-05 16:55:00,
2014-03-05 12:00:00,46.6,23.6,30.19,ENE,68,2.9,2.9,40,0.00,,OVC250,0.00,VWS V15.00,2014-03-05 17:00:00,
2014-03-05 12:05:00,46.8,23.2,30.19,ENE,68,2.9,2.9,39,0.00,,OVC250,0.00,VWS V15.00,2014-03-05 17:05:00,
2014-03-05 12:10:00,46.8,22.5,30.19,ENE,68,2.9,2.9,38,0.00,,OVC250,0.00,VWS V15.00,2014-03-05 17:10:00,
2014-03-05 12:15:00,46.6,21.7,30.19,ENE,68,2.9,2.9,37,0.00,,OVC250,0.00,VWS V15.00,2014-03-05 17:15:00,
2014-03-05 12:20:00,46.1,21.3,30.18,ENE,68,2.9,2.9,37,0.00,,OVC250,0.00,VWS V15.00,2014-03-05 17:20:00,
2014-03-05 12:25:00,46.3,22.7,30.18,ENE,68,2.9,2.9,39,0.00,,OVC250,0.00,VWS V15.00,2014-03-05 17:25:00,
2014-03-05 12:30:00,46.8,22.5,30.17,ENE,68,2.9,2.9,38,0.00,,OVC250,0.00,VWS V15.00,2014-03-05 17:30:00,
2014-03-05 12:35:00,46.8,21.9,30.16,ENE,68,2.9,2.9,37,0.00,,OVC250,0.00,VWS V15.00,2014-03-05 17:35:00,
2014-03-05 12:40:00,46.6,22.4,30.16,ENE,68,2.9,2.9,38,0.00,,OVC250,0.00,VWS V15.00,2014-03-05 17:40:00,
2014-03-05 12:45:00,47.2,22.9,30.16,ENE,68,2.9,2.9,38,0.00,,OVC250,0.00,VWS V15.00,2014-03-05 17:45:00,
2014-03-05 12:50:00,47.3,23.0,30.16,ENE,68,2.9,2.9,38,0.00,,OVC250,0.00,VWS V15.00,2014-03-05 17:50:00,
2014-03-05 12:55:00,47.5,23.2,30.16,ENE,68,2.9,2.9,38,0.00,,OVC250,0.00,VWS V15.00,2014-03-05 17:55:00,
2014-03-05 13:00:00,47.3,23.0,30.15,ENE,68,2.9,2.9,38,0.00,,OVC250,0.00,VWS V15.00,2014-03-05 18:00:00,
2014-03-05 13:05:00,47.2,23.5,30.15,ENE,68,2.9,2.9,39,0.00,,OVC250,0.00,VWS V15.00,2014-03-05 18:05:00,
2014-03-05 13:10:00,47.7,24.0,30.15,ENE,68,2.9,2.9,39,0.00,,OVC250,0.00,VWS V15.00,2014-03-05 18:10:00,
2014-03-05 13:15:00,48.1,24.3,30.15,ENE,68,2.9,2.9,39,0.00,,OVC250,0.00,VWS V15.00,2014-03-05 18:15:00,
2014-03-05 13:20:00,48.4,24.6,30.14,ENE,68,2.9,2.9,39,0.00,,OVC250,0.00,VWS V15.00,2014-03-05 18:20:00,
2014-03-05 13:25:00,48.8,24.3,30.14,ENE,68,2.9,2.9,38,0.00,,OVC250,0.00,VWS V15.00,2014-03-05 18:25:00,
2014-03-05 13:30:00,48.8,24.3,30.14,ENE,68,2.9,2.9,38,0.00,,OVC250,0.00,VWS V15.00,2014-03-05 18:30:00,
2014-03-05 13:35:00,49.0,25.1,30.14,ENE,68,2.9,2.9,39,0.00,,OVC250,0.00,VWS V15.00,2014-03-05 18:35:00,
2014-03-05 13:40:00,49.0,24.5,30.14,ENE,68,2.9,2.9,38,0.00,,OVC250,0.00,VWS V15.00,2014-03-05 18:40:00,
2014-03-05 13:45:00,49.5,25.6,30.14,ENE,68,2.9,2.9,39,0.00,,OVC250,0.00,VWS V15.00,2014-03-05 18:45:00,
2014-03-05 13:50:00,49.7,25.1,30.13,ENE,68,2.9,2.9,38,0.00,,OVC250,0.00,VWS V15.00,2014-03-05 18:50:00,
2014-03-05 13:55:00,49.5,25.0,30.13,ENE,68,2.9,2.9,38,0.00,,OVC250,0.00,VWS V15.00,2014-03-05 18:55:00,
2014-03-05 14:00:00,50.2,26.8,30.13,ENE,68,2.9,2.9,40,0.00,,OVC250,0.00,VWS V15.00,2014-03-05 19:00:00,
2014-03-05 14:05:00,50.6,26.6,30.13,ENE,68,2.9,2.9,39,0.00,,OVC250,0.00,VWS V15.00,2014-03-05 19:05:00,
2014-03-05 14:10:00,50.6,26.6,30.13,ENE,68,2.9,2.9,39,0.00,,OVC250,0.00,VWS V15.00,2014-03-05 19:10:00,
2014-03-05 14:15:00,50.6,26.6,30.12,ENE,68,2.9,2.9,39,0.00,,OVC250,0.00,VWS V15.00,2014-03-05 19:15:00,
2014-03-05 14:20:00,50.8,26.8,30.13,ENE,68,2.9,2.9,39,0.00,,OVC250,0.00,VWS V15.00,2014-03-05 19:20:00,
2014-03-05 14:25:00,50.4,25.8,30.12,ENE,68,2.9,2.9,38,0.00,,OVC250,0.00,VWS V15.00,2014-03-05 19:25:00,
2014-03-05 14:30:00,50.2,26.8,30.12,ENE,68,2.9,2.9,40,0.00,,OVC250,0.00,VWS V15.00,2014-03-05 19:30:00,
2014-03-05 14:35:00,50.6,27.2,30.12,ENE,68,2.9,2.9,40,0.00,,OVC250,0.00,VWS V15.00,2014-03-05 19:35:00,
2014-03-05 14:40:00,51.1,27.6,30.12,ENE,68,2.9,2.9,40,0.00,,OVC250,0.00,VWS V15.00,2014-03-05 19:40:00,
2014-03-05 14:45:00,51.5,28.0,30.12,ENE,68,2.9,2.9,40,0.00,,OVC250,0.00,VWS V15.00,2014-03-05 19:45:00,
2014-03-05 14:50:00,51.8,28.3,30.12,ENE,68,2.9,2.9,40,0.00,,OVC250,0.00,VWS V15.00,2014-03-05 19:50:00,
2014-03-05 14:55:00,51.8,27.6,30.12,ENE,68,2.9,2.9,39,0.00,,OVC250,0.00,VWS V15.00,2014-03-05 19:55:00,
2014-03-05 15:00:00,51.8,27.6,30.12,ENE,68,2.9,2.9,39,0.00,,BKN250,0.00,VWS V15.00,2014-03-05 20:00:00,
2014-03-05 15:05:00,52.0,28.5,30.12,ENE,68,2.9,2.9,40,0.00,,BKN250,0.00,VWS V15.00,2014-03-05 20:05:00,
2014-03-05 15:10:00,52.2,28.0,30.12,ENE,68,2.9,2.9,39,0.00,,BKN250,0.00,VWS V15.00,2014-03-05 20:10:00,
2014-03-05 15:15:00,52.0,28.5,30.12,ENE,68,2.9,2.9,40,0.00,,BKN250,0.00,VWS V15.00,2014-03-05 20:15:00,
2014-03-05 15:20:00,52.2,27.4,30.11,ENE,68,2.9,2.9,38,0.00,,BKN250,0.00,VWS V15.00,2014-03-05 20:20:00,
2014-03-05 15:25:00,52.2,28.0,30.12,ENE,68,2.9,2.9,39,0.00,,BKN250,0.00,VWS V15.00,2014-03-05 20:25:00,
2014-03-05 15:30:00,52.6,27.7,30.12,ENE,68,2.9,2.9,38,0.00,,BKN250,0.00,VWS V15.00,2014-03-05 20:30:00,
2014-03-05 15:35:00,52.9,28.6,30.12,ENE,68,2.9,2.9,39,0.00,,BKN250,0.00,VWS V15.00,2014-03-05 20:35:00,
2014-03-05 15:40:00,53.1,27.5,30.11,ENE,68,2.9,2.9,37,0.00,,BKN250,0.00,VWS V15.00,2014-03-05 20:40:00,
2014-03-05 15:45:00,52.4,28.2,30.11,ENE,68,2.9,2.9,39,0.00,,BKN250,0.00,VWS V15.00,2014-03-05 20:45:00,
2014-03-05 15:50:00,52.7,28.5,30.12,ENE,68,2.9,2.9,39,0.00,,BKN250,0.00,VWS V15.00,2014-03-05 20:50:00,
2014-03-05 15:55:00,52.9,28.0,30.12,ENE,68,2.9,2.9,38,0.00,,BKN250,0.00,VWS V15.00,2014-03-05 20:55:00,
2014-03-05 16:00:00,53.3,27.7,30.12,ENE,68,2.9,2.9,37,0.00,,BKN250,0.00,VWS V15.00,2014-03-05 21:00:00,
2014-03-05 16:05:00,52.9,28.0,30.13,ENE,68,2.9,2.9,38,0.00,,BKN250,0.00,VWS V15.00,2014-03-05 21:05:00,
2014-03-05 16:10:00,53.1,28.8,30.12,ENE,68,2.9,2.9,39,0.00,,BKN250,0.00,VWS V15.00,2014-03-05 21:10:00,
2014-03-05 16:15:00,53.1,28.8,30.12,ENE,68,2.9,2.9,39,0.00,,BKN250,0.00,VWS V15.00,2014-03-05 21:15:00,
2014-03-05 16:20:00,52.9,28.6,30.12,ENE,68,2.9,2.9,39,0.00,,BKN250,0.00,VWS V15.00,2014-03-05 21:20:00,
2014-03-05 16:25:00,53.1,28.2,30.12,NNE,22,3.6,3.6,38,0.00,,BKN250,0.00,VWS V15.00,2014-03-05 21:25:00,
2014-03-05 16:30:00,53.3,28.4,30.12,ENE,68,3.1,3.1,38,0.00,,BKN250,0.00,VWS V15.00,2014-03-05 21:30:00,
2014-03-05 16:35:00,53.3,28.4,30.11,SE,135,2.2,2.2,38,0.00,,BKN250,0.00,VWS V15.00,2014-03-05 21:35:00,
2014-03-05 16:40:00,53.1,28.2,30.11,East,90,2.0,2.0,38,0.00,,BKN250,0.00,VWS V15.00,2014-03-05 21:40:00,
2014-03-05 16:45:00,52.9,27.4,30.11,ESE,112,3.6,3.6,37,0.00,,BKN250,0.00,VWS V15.00,2014-03-05 21:45:00,
2014-03-05 16:50:00,52.9,28.0,30.11,ESE,112,3.6,3.6,38,0.00,,BKN250,0.00,VWS V15.00,2014-03-05 21:50:00,
2014-03-05 16:55:00,52.9,28.0,30.11,ESE,112,3.6,3.6,38,0.00,,BKN250,0.00,VWS V15.00,2014-03-05 21:55:00,
2014-03-05 17:00:00,53.1,27.5,30.11,ESE,112,3.6,3.6,37,0.00,,SCT250,0.00,VWS V15.00,2014-03-05 22:00:00,
2014-03-05 17:05:00,52.9,28.0,30.11,ESE,112,3.6,3.6,38,0.00,,SCT250,0.00,VWS V15.00,2014-03-05 22:05:00,
2014-03-05 17:10:00,52.7,27.8,30.11,ESE,112,3.6,3.6,38,0.00,,SCT250,0.00,VWS V15.00,2014-03-05 22:10:00,
2014-03-05 17:15:00,52.6,27.7,30.11,ESE,112,3.6,3.6,38,0.00,,SCT250,0.00,VWS V15.00,2014-03-05 22:15:00,
2014-03-05 17:20:00,52.6,27.7,30.11,ESE,112,3.6,3.6,38,0.00,,SCT250,0.00,VWS V15.00,2014-03-05 22:20:00,
2014-03-05 17:25:00,52.4,28.2,30.12,ESE,112,3.6,3.6,39,0.00,,SCT250,0.00,VWS V15.00,2014-03-05 22:25:00,
2014-03-05 17:30:00,52.2,28.0,30.12,ESE,112,3.6,3.6,39,0.00,,SCT250,0.00,VWS V15.00,2014-03-05 22:30:00,
2014-03-05 17:35:00,51.8,28.3,30.13,ESE,112,3.6,3.6,40,0.00,,SCT250,0.00,VWS V15.00,2014-03-05 22:35:00,
2014-03-05 17:40:00,51.8,27.6,30.13,ESE,112,3.6,3.6,39,0.00,,SCT250,0.00,VWS V15.00,2014-03-05 22:40:00,
2014-03-05 17:45:00,51.7,28.8,30.14,ESE,112,3.6,3.6,41,0.00,,SCT250,0.00,VWS V15.00,2014-03-05 22:45:00,
2014-03-05 17:50:00,51.5,28.6,30.14,ESE,112,3.6,3.6,41,0.00,,SCT250,0.00,VWS V15.00,2014-03-05 22:50:00,
2014-03-05 17:55:00,51.1,28.2,30.14,ESE,112,3.6,3.6,41,0.00,,SCT250,0.00,VWS V15.00,2014-03-05 22:55:00,
2014-03-05 18:00:00,50.8,28.5,30.13,ESE,112,3.6,3.6,42,0.00,,FEW250,0.00,VWS V15.00,2014-03-05 23:00:00,
2014-03-05 18:05:00,50.4,28.2,30.14,ESE,112,3.6,3.6,42,0.00,,FEW250,0.00,VWS V15.00,2014-03-05 23:05:00,
2014-03-05 18:10:00,50.2,28.0,30.15,ESE,112,3.6,3.6,42,0.00,,FEW250,0.00,VWS V15.00,2014-03-05 23:10:00,
2014-03-05 18:15:00,49.9,27.7,30.15,ESE,112,3.6,3.6,42,0.00,,FEW250,0.00,VWS V15.00,2014-03-05 23:15:00,
2014-03-05 18:20:00,49.3,27.8,30.15,ESE,112,3.6,3.6,43,0.00,,FEW250,0.00,VWS V15.00,2014-03-05 23:20:00,
2014-03-05 18:25:00,49.1,27.6,30.15,ESE,112,3.6,3.6,43,0.00,,FEW250,0.00,VWS V15.00,2014-03-05 23:25:00,
2014-03-05 18:30:00,48.4,27.5,30.16,ESE,112,3.6,3.6,44,0.00,,FEW250,0.00,VWS V15.00,2014-03-05 23:30:00,
2014-03-05 18:35:00,47.9,27.0,30.15,ESE,112,3.6,3.6,44,0.00,,FEW250,0.00,VWS V15.00,2014-03-05 23:35:00,
2014-03-05 18:40:00,47.3,27.0,30.15,ESE,112,3.6,3.6,45,0.00,,FEW250,0.00,VWS V15.00,2014-03-05 23:40:00,
2014-03-05 18:45:00,46.8,27.1,30.15,ESE,112,3.6,3.6,46,0.00,,FEW250,0.00,VWS V15.00,2014-03-05 23:45:00,
2014-03-05 18:50:00,46.3,27.2,30.16,ESE,112,3.6,3.6,47,0.00,,FEW250,0.00,VWS V15.00,2014-03-05 23:50:00,
2014-03-05 18:55:00,45.7,27.1,30.16,ESE,112,3.6,3.6,48,0.00,,FEW250,0.00,VWS V15.00,2014-03-05 23:55:00,
2014-03-05 19:00:00,45.0,27.0,30.16,ESE,112,3.6,3.6,49,0.00,,FEW250,0.00,VWS V15.00,2014-03-06 00:00:00,
2014-03-05 19:05:00,44.6,26.6,30.16,ESE,112,3.6,3.6,49,0.00,,FEW250,0.00,VWS V15.00,2014-03-06 00:05:00,
2014-03-05 19:10:00,44.3,26.4,30.16,ESE,112,3.6,3.6,49,0.00,,FEW250,0.00,VWS V15.00,2014-03-06 00:10:00,
2014-03-05 19:15:00,43.7,26.3,30.17,ESE,112,3.6,3.6,50,0.00,,FEW250,0.00,VWS V15.00,2014-03-06 00:15:00,
2014-03-05 19:20:00,43.4,26.0,30.17,ESE,112,3.6,3.6,50,0.00,,FEW250,0.00,VWS V15.00,2014-03-06 00:20:00,
2014-03-05 19:25:00,42.8,25.9,30.18,ESE,112,2.0,2.0,51,0.00,,FEW250,0.00,VWS V15.00,2014-03-06 00:25:00,
2014-03-05 19:30:00,42.5,26.1,30.18,ESE,112,2.0,2.0,52,0.00,,FEW250,0.00,VWS V15.00,2014-03-06 00:30:00,
2014-03-05 19:35:00,42.1,25.8,30.18,ESE,112,2.0,2.0,52,0.00,,FEW250,0.00,VWS V15.00,2014-03-06 00:35:00,
2014-03-05 19:40:00,41.9,25.6,30.19,ESE,112,2.0,2.0,52,0.00,,FEW250,0.00,VWS V15.00,2014-03-06 00:40:00,
2014-03-05 19:45:00,41.4,25.6,30.19,ESE,112,2.0,2.0,53,0.00,,FEW250,0.00,VWS V15.00,2014-03-06 00:45:00,
2014-03-05 19:50:00,41.0,25.2,30.20,ESE,112,2.0,2.0,53,0.00,,FEW250,0.00,VWS V15.00,2014-03-06 00:50:00,
2014-03-05 19:55:00,40.7,25.4,30.20,ESE,112,2.0,2.0,54,0.00,,FEW250,0.00,VWS V15.00,2014-03-06 00:55:00,
2014-03-05 20:00:00,40.3,25.0,30.21,ESE,112,2.0,2.0,54,0.00,,SCT250,0.00,VWS V15.00,2014-03-06 01:00:00,
2014-03-05 20:05:00,40.0,25.1,30.21,ESE,112,2.0,2.0,55,0.00,,SCT250,0.00,VWS V15.00,2014-03-06 01:05:00,
2014-03-05 20:10:00,39.6,24.8,30.21,ESE,112,2.0,2.0,55,0.00,,SCT250,0.00,VWS V15.00,2014-03-06 01:10:00,
2014-03-05 20:15:00,39.2,24.8,30.21,ESE,112,2.0,2.0,56,0.00,,SCT250,0.00,VWS V15.00,2014-03-06 01:15:00,
2014-03-05 20:20:00,39.1,25.2,30.21,ESE,112,2.0,2.0,57,0.00,,SCT250,0.00,VWS V15.00,2014-03-06 01:20:00,
2014-03-05 20:25:00,38.7,24.8,30.21,ESE,112,2.0,2.0,57,0.00,,SCT250,0.00,VWS V15.00,2014-03-06 01:25:00,
2014-03-05 20:30:00,38.5,25.0,30.21,ESE,112,2.0,2.0,58,0.00,,SCT250,0.00,VWS V15.00,2014-03-06 01:30:00,
2014-03-05 20:35:00,38.2,24.7,30.21,ESE,112,2.0,2.0,58,0.00,,SCT250,0.00,VWS V15.00,2014-03-06 01:35:00,
2014-03-05 20:40:00,38.0,25.0,30.22,ESE,112,2.0,2.0,59,0.00,,SCT250,0.00,VWS V15.00,2014-03-06 01:40:00,
2014-03-05 20:45:00,37.8,24.8,30.22,ESE,112,2.0,2.0,59,0.00,,SCT250,0.00,VWS V15.00,2014-03-06 01:45:00,
2014-03-05 20:50:00,37.4,24.4,30.22,ESE,112,2.0,2.0,59,0.00,,SCT250,0.00,VWS V15.00,2014-03-06 01:50:00,
2014-03-05 20:55:00,37.3,24.7,30.22,ESE,112,2.0,2.0,60,0.00,,SCT250,0.00,VWS V15.00,2014-03-06 01:55:00,
2014-03-05 21:00:00,37.1,24.5,30.22,ESE,112,2.0,2.0,60,0.00,,FEW250,0.00,VWS V15.00,2014-03-06 02:00:00,
2014-03-05 21:05:00,36.9,24.3,30.22,ESE,112,2.0,2.0,60,0.00,,FEW250,0.00,VWS V15.00,2014-03-06 02:05:00,
2014-03-05 21:10:00,36.7,24.1,30.22,ESE,112,2.0,2.0,60,0.00,,FEW250,0.00,VWS V15.00,2014-03-06 02:10:00,
2014-03-05 21:15:00,36.4,23.9,30.22,ESE,112,2.0,2.0,60,0.00,,FEW250,0.00,VWS V15.00,2014-03-06 02:15:00,
2014-03-05 21:20:00,36.2,24.1,30.22,ESE,112,2.0,2.0,61,0.00,,FEW250,0.00,VWS V15.00,2014-03-06 02:20:00,
2014-03-05 21:25:00,36.0,23.9,30.22,ESE,112,2.0,2.0,61,0.00,,FEW250,0.00,VWS V15.00,2014-03-06 02:25:00,
2014-03-05 21:30:00,35.8,24.1,30.21,ESE,112,2.0,2.0,62,0.00,,FEW250,0.00,VWS V15.00,2014-03-06 02:30:00,
2014-03-05 21:35:00,35.6,23.9,30.21,ESE,112,2.0,2.0,62,0.00,,FEW250,0.00,VWS V15.00,2014-03-06 02:35:00,
2014-03-05 21:40:00,35.6,23.9,30.21,ESE,112,2.0,2.0,62,0.00,,FEW250,0.00,VWS V15.00,2014-03-06 02:40:00,
2014-03-05 21:45:00,35.5,23.8,30.22,ESE,112,2.2,2.2,62,0.00,,FEW250,0.00,VWS V15.00,2014-03-06 02:45:00,
2014-03-05 21:49:00,35.5,23.8,30.22,ESE,112,2.0,2.0,62,0.00,,FEW250,0.00,VWS V15.00,2014-03-06 02:49:00,
2014-03-05 21:54:00,35.5,23.8,30.22,ESE,112,2.0,2.0,62,0.00,,FEW250,0.00,VWS V15.00,2014-03-06 02:54:00,
2014-03-05 22:00:00,35.3,24.0,30.23,ESE,112,2.0,2.0,63,0.00,,BKN250,0.00,VWS V15.00,2014-03-06 03:00:00,
2014-03-05 22:05:00,35.1,23.4,30.23,ESE,112,2.0,2.0,62,0.00,,BKN250,0.00,VWS V15.00,2014-03-06 03:05:00,
2014-03-05 22:09:00,34.9,23.6,30.23,ESE,112,2.0,2.0,63,0.00,,BKN250,0.00,VWS V15.00,2014-03-06 03:09:00,
2014-03-05 22:14:00,34.9,23.6,30.23,ESE,112,2.0,2.0,63,0.00,,BKN250,0.00,VWS V15.00,2014-03-06 03:14:00,
2014-03-05 22:19:00,34.7,23.0,30.23,ESE,112,2.0,2.0,62,0.00,,BKN250,0.00,VWS V15.00,2014-03-06 03:19:00,
2014-03-05 22:24:00,34.6,22.9,30.22,ESE,112,2.0,2.0,62,0.00,,BKN250,0.00,VWS V15.00,2014-03-06 03:24:00,
2014-03-05 22:29:00,34.4,22.7,30.22,ESE,112,2.0,2.0,62,0.00,,BKN250,0.00,VWS V15.00,2014-03-06 03:29:00,
2014-03-05 22:34:00,34.6,21.8,30.22,East,90,2.4,2.7,59,0.00,,BKN250,0.00,VWS V15.00,2014-03-06 03:34:00,
2014-03-05 22:39:00,34.6,21.8,30.22,East,90,2.2,2.4,59,0.00,,BKN250,0.00,VWS V15.00,2014-03-06 03:39:00,
2014-03-05 22:44:00,35.3,22.8,30.22,North,0,2.2,3.8,60,0.00,,BKN250,0.00,VWS V15.00,2014-03-06 03:44:00,
2014-03-05 22:49:00,35.8,23.3,30.22,East,90,2.4,3.1,60,0.00,,BKN250,0.00,VWS V15.00,2014-03-06 03:49:00,
2014-03-05 22:54:00,36.4,23.9,30.23,SE,135,2.2,2.4,60,0.00,,BKN250,0.00,VWS V15.00,2014-03-06 03:54:00,
2014-03-05 22:59:00,36.4,23.9,30.24,SE,135,2.0,2.0,60,0.00,,BKN250,0.00,VWS V15.00,2014-03-06 03:59:00,
2014-03-05 23:04:00,36.2,24.1,30.24,SE,135,2.0,2.0,61,0.00,,BKN250,0.00,VWS V15.00,2014-03-06 04:04:00,
2014-03-05 23:09:00,35.8,23.7,30.24,SE,135,2.0,2.0,61,0.00,,BKN250,0.00,VWS V15.00,2014-03-06 04:09:00,
2014-03-05 23:14:00,35.5,23.4,30.24,SE,135,2.0,2.0,61,0.00,,BKN250,0.00,VWS V15.00,2014-03-06 04:14:00,
2014-03-05 23:19:00,35.1,23.0,30.24,SE,135,2.0,2.0,61,0.00,,BKN250,0.00,VWS V15.00,2014-03-06 04:19:00,
2014-03-05 23:24:00,34.9,23.2,30.24,SE,135,2.0,2.0,62,0.00,,BKN250,0.00,VWS V15.00,2014-03-06 04:24:00,
2014-03-05 23:29:00,34.6,22.9,30.24,SE,135,2.0,2.0,62,0.00,,BKN250,0.00,VWS V15.00,2014-03-06 04:29:00,
2014-03-05 23:34:00,34.6,22.9,30.24,SE,135,2.0,2.0,62,0.00,,BKN250,0.00,VWS V15.00,2014-03-06 04:34:00,
2014-03-05 23:39:00,34.2,22.5,30.24,SE,135,2.0,2.0,62,0.00,,BKN250,0.00,VWS V15.00,2014-03-06 04:39:00,
2014-03-05 23:44:00,34.2,22.5,30.24,ENE,68,2.0,2.2,62,0.00,,BKN250,0.00,VWS V15.00,2014-03-06 04:44:00,
2014-03-05 23:49:00,34.0,22.0,30.24,ENE,68,2.0,2.2,61,0.00,,BKN250,0.00,VWS V15.00,2014-03-06 04:49:00,
2014-03-05 23:54:00,34.0,22.0,30.24,ESE,112,2.0,2.4,61,0.00,,BKN250,0.00,VWS V15.00,2014-03-06 04:54:00,
2014-03-05 23:59:00,34.0,22.0,30.24,ESE,112,2.0,2.0,61,0.00,,SCT250,0.00,VWS V15.00,2014-03-06 04:59:00,